When you browse on this site, cookies collect data to enhance your experience and personalize the content and advertising you see.
Visit our Privacy Policy to learn more. By continuing to use the site, you agree to this use of cookies and data.
  • In Latvia
  • List of Countries
  • For 7 days
  • Water Temperature
  • Weather Map
  • Weather Widgets
  • user-avatar
    Login

    Hourly Weather Dumfries

    Today, 21 September, Saturday

    Time Temperature Precipitation Wind Pressure Humidity
    00:00 +13°C° 0 mm 1 mps 760 mmHg 95%
    01:00 +12°C° 0 mm 1 mps 759 mmHg 95%
    02:00 +12°C° 0 mm 1 mps 759 mmHg 95%
    03:00 +12°C° 0 mm 2 mps 758 mmHg 95%
    04:00 +12°C° 0 mm 2 mps 758 mmHg 95%
    05:00 +10°C° 0 mm 2 mps 757 mmHg 95%
    06:00 +10°C° 0 mm 2 mps 757 mmHg 95%
    07:00 +12°C° 0 mm 2 mps 757 mmHg 90%
    08:00 +14°C° 0 mm 2 mps 756 mmHg 85%
    09:00 +15°C° 0 mm 2 mps 756 mmHg 81%
    10:00 +17°C° 0 mm 3 mps 756 mmHg 74%
    11:00 +18°C° 0 mm 3 mps 755 mmHg 68%
    12:00 +20°C° 0 mm 4 mps 755 mmHg 61%
    13:00 +20°C° 0 mm 4 mps 754 mmHg 62%
    14:00 +21°C° 0 mm 4 mps 754 mmHg 63%
    15:00 +21°C° 0 mm 4 mps 753 mmHg 64%
    16:00 +19°C° 0 mm 3 mps 753 mmHg 71%
    17:00 +18°C° 0 mm 3 mps 753 mmHg 79%
    18:00 +16°C° 0 mm 3 mps 752 mmHg 86%
    19:00 +14°C° 0 mm 3 mps 752 mmHg 89%
    20:00 +14°C° 0 mm 2 mps 752 mmHg 92%
    21:00 +13°C° 0 mm 2 mps 752 mmHg 95%
    22:00 +13°C° 0 mm 2 mps 752 mmHg 95%
    23:00 +13°C° 0 mm 2 mps 752 mmHg 95%

    Tomorrow, 22 September, Sunday

    Time Temperature Precipitation Wind Pressure Humidity
    00:00 +12°C° 0 mm 2 mps 751 mmHg 96%
    01:00 +12°C° 0 mm 2 mps 751 mmHg 96%
    02:00 +12°C° 0 mm 2 mps 750 mmHg 96%
    03:00 +12°C° 0 mm 2 mps 750 mmHg 96%
    04:00 +12°C° 0 mm 2 mps 750 mmHg 95%
    05:00 +12°C° 0 mm 2 mps 749 mmHg 95%
    06:00 +13°C° 0 mm 2 mps 749 mmHg 95%
    07:00 +13°C° 0 mm 2 mps 749 mmHg 93%
    08:00 +14°C° 0 mm 2 mps 749 mmHg 91%
    09:00 +14°C° 0 mm 3 mps 749 mmHg 88%
    10:00 +16°C° 0.3 mm 3 mps 749 mmHg 89%
    11:00 +17°C° 0.3 mm 3 mps 748 mmHg 89%
    12:00 +17°C° 0.3 mm 3 mps 748 mmHg 89%
    13:00 +17°C° 0.3 mm 3 mps 748 mmHg 90%
    14:00 +17°C° 0.3 mm 3 mps 748 mmHg 91%
    15:00 +17°C° 0.3 mm 3 mps 747 mmHg 92%
    16:00 +17°C° 0.3 mm 2 mps 747 mmHg 94%
    17:00 +17°C° 0.3 mm 2 mps 747 mmHg 95%
    18:00 +16°C° 0.3 mm 2 mps 747 mmHg 97%
    19:00 +16°C° 2.7 mm 1 mps 748 mmHg 97%
    20:00 +16°C° 2.7 mm 1 mps 748 mmHg 98%
    21:00 +15°C° 2.7 mm 1 mps 748 mmHg 98%
    22:00 +15°C° 1.1 mm 1 mps 748 mmHg 98%
    23:00 +15°C° 1.1 mm 1 mps 748 mmHg 98%

    Day after tomorrow, 23 September, Monday

    Time Temperature Precipitation Wind Pressure Humidity
    00:00 +15°C° 1.1 mm 1 mps 748 mmHg 97%
    01:00 +15°C° 0.1 mm 2 mps 749 mmHg 97%
    02:00 +14°C° 0.1 mm 2 mps 749 mmHg 97%
    03:00 +14°C° 0.1 mm 2 mps 749 mmHg 96%
    04:00 +13°C° 0 mm 2 mps 749 mmHg 96%
    05:00 +13°C° 0 mm 2 mps 749 mmHg 96%
    06:00 +12°C° 0 mm 2 mps 750 mmHg 96%
    07:00 +13°C° 0 mm 2 mps 750 mmHg 93%
    08:00 +14°C° 0 mm 1 mps 750 mmHg 91%
    09:00 +15°C° 0 mm 1 mps 750 mmHg 88%
    10:00 +15°C° 0.1 mm 1 mps 750 mmHg 86%
    11:00 +16°C° 0.1 mm 2 mps 750 mmHg 84%
    12:00 +16°C° 0.1 mm 2 mps 750 mmHg 82%
    13:00 +17°C° 0.1 mm 2 mps 750 mmHg 80%
    14:00 +17°C° 0.1 mm 3 mps 749 mmHg 79%
    15:00 +17°C° 0.1 mm 3 mps 749 mmHg 78%
    16:00 +16°C° 0.1 mm 3 mps 749 mmHg 81%
    17:00 +15°C° 0.1 mm 2 mps 748 mmHg 85%
    18:00 +14°C° 0.1 mm 2 mps 748 mmHg 88%
    19:00 +14°C° 0.4 mm 2 mps 748 mmHg 90%
    20:00 +13°C° 0.4 mm 3 mps 747 mmHg 91%
    21:00 +13°C° 0.4 mm 3 mps 747 mmHg 93%
    22:00 +13°C° 0.2 mm 3 mps 747 mmHg 94%
    23:00 +14°C° 0.2 mm 2 mps 746 mmHg 94%

    24 September, Tuesday

    Time Temperature Precipitation Wind Pressure Humidity
    00:00 +14°C° 0.2 mm 2 mps 746 mmHg 95%
    01:00 +14°C° 0.2 mm 2 mps 746 mmHg 95%
    02:00 +14°C° 0.2 mm 2 mps 746 mmHg 96%
    03:00 +14°C° 0.2 mm 1 mps 745 mmHg 96%
    04:00 +14°C° 0.5 mm 1 mps 745 mmHg 97%
    05:00 +14°C° 0.5 mm 1 mps 745 mmHg 97%
    06:00 +14°C° 0.5 mm 1 mps 744 mmHg 97%
    07:00 +14°C° 0.1 mm 1 mps 744 mmHg 96%
    08:00 +15°C° 0.1 mm 1 mps 744 mmHg 95%
    09:00 +15°C° 0.1 mm 1 mps 744 mmHg 95%
    10:00 +16°C° 0.1 mm 1 mps 744 mmHg 93%
    11:00 +16°C° 0.1 mm 2 mps 744 mmHg 92%
    12:00 +17°C° 0.1 mm 2 mps 743 mmHg 90%
    13:00 +17°C° 0.4 mm 2 mps 743 mmHg 90%
    14:00 +17°C° 0.4 mm 2 mps 743 mmHg 90%
    15:00 +17°C° 0.4 mm 3 mps 743 mmHg 90%
    16:00 +17°C° 1.7 mm 2 mps 743 mmHg 93%
    17:00 +16°C° 1.7 mm 2 mps 743 mmHg 95%
    18:00 +15°C° 1.7 mm 2 mps 742 mmHg 98%
    19:00 +15°C° 1.9 mm 2 mps 742 mmHg 98%
    20:00 +15°C° 1.9 mm 2 mps 743 mmHg 98%
    21:00 +15°C° 1.9 mm 1 mps 743 mmHg 98%
    22:00 +15°C° 1.5 mm 1 mps 742 mmHg 98%
    23:00 +15°C° 1.5 mm 1 mps 742 mmHg 98%

    25 September, Wednesday

    Time Temperature Precipitation Wind Pressure Humidity
    00:00 +15°C° 1.5 mm 1 mps 742 mmHg 98%
    01:00 +15°C° 0.6 mm 1 mps 742 mmHg 98%
    02:00 +14°C° 0.6 mm 1 mps 742 mmHg 98%
    03:00 +14°C° 0.6 mm 1 mps 742 mmHg 98%
    04:00 +14°C° 1.1 mm 1 mps 742 mmHg 98%
    05:00 +14°C° 1.1 mm 1 mps 742 mmHg 98%
    06:00 +14°C° 1.1 mm 1 mps 742 mmHg 97%
    07:00 +14°C° 0.7 mm 1 mps 742 mmHg 97%
    08:00 +14°C° 0.7 mm 1 mps 742 mmHg 96%
    09:00 +14°C° 0.7 mm 1 mps 742 mmHg 95%
    10:00 +15°C° 0.3 mm 1 mps 742 mmHg 93%
    11:00 +15°C° 0.3 mm 2 mps 742 mmHg 91%
    12:00 +16°C° 0.3 mm 2 mps 742 mmHg 89%
    13:00 +16°C° 0.2 mm 2 mps 741 mmHg 87%
    14:00 +16°C° 0.2 mm 2 mps 741 mmHg 85%
    15:00 +17°C° 0.2 mm 2 mps 741 mmHg 83%
    16:00 +16°C° 0.5 mm 2 mps 740 mmHg 87%
    17:00 +15°C° 0.5 mm 2 mps 740 mmHg 91%
    18:00 +14°C° 0.5 mm 1 mps 740 mmHg 95%
    19:00 +14°C° 1 mm 1 mps 740 mmHg 96%
    20:00 +14°C° 1 mm 2 mps 740 mmHg 96%
    21:00 +14°C° 1 mm 2 mps 740 mmHg 97%
    22:00 +14°C° 0.3 mm 1 mps 740 mmHg 97%
    23:00 +14°C° 0.3 mm 1 mps 739 mmHg 97%

    26 September, Thursday

    Time Temperature Precipitation Wind Pressure Humidity
    00:00 +14°C° 0.3 mm 1 mps 739 mmHg 96%
    01:00 +14°C° 0.1 mm 2 mps 738 mmHg 96%
    02:00 +14°C° 0.1 mm 2 mps 737 mmHg 96%
    03:00 +14°C° 0.1 mm 2 mps 737 mmHg 96%
    04:00 +13°C° 0.9 mm 3 mps 736 mmHg 96%
    05:00 +13°C° 0.9 mm 4 mps 735 mmHg 96%
    06:00 +13°C° 0.9 mm 5 mps 734 mmHg 95%
    07:00 +13°C° 1 mm 4 mps 734 mmHg 94%
    08:00 +13°C° 1 mm 3 mps 734 mmHg 93%
    09:00 +13°C° 1 mm 3 mps 734 mmHg 91%
    10:00 +13°C° 0.3 mm 3 mps 735 mmHg 87%
    11:00 +14°C° 0.3 mm 4 mps 735 mmHg 82%
    12:00 +14°C° 0.3 mm 5 mps 735 mmHg 78%
    13:00 +14°C° 0.3 mm 4 mps 735 mmHg 77%
    14:00 +14°C° 0.3 mm 4 mps 735 mmHg 76%
    15:00 +14°C° 0.3 mm 4 mps 736 mmHg 75%
    16:00 +13°C° 0.1 mm 4 mps 736 mmHg 79%
    17:00 +11°C° 0.1 mm 3 mps 736 mmHg 83%
    18:00 +10°C° 0.1 mm 2 mps 736 mmHg 87%
    19:00 +10°C° 0 mm 2 mps 736 mmHg 89%
    20:00 +10°C° 0 mm 2 mps 736 mmHg 90%
    21:00 +9°C° 0 mm 2 mps 736 mmHg 92%
    22:00 +9°C° 0 mm 2 mps 736 mmHg 92%
    23:00 +9°C° 0 mm 2 mps 736 mmHg 93%
    Show more